Time,TemperatureF,DewpointF,PressureIn,WindDirection,WindDirectionDegrees,WindSpeedMPH,WindSpeedGustMPH,Humidity,HourlyPrecipIn,Conditions,Clouds,dailyrainin,SolarRadiationWatts/m^2,SoftwareType,DateUTC
2013-07-07 00:01:00,69.0,64.0,-100.00,SE,138,2.0,4.0,85,0.00,,,0.00,0.000000,,2013-07-07 04:01:00,
2013-07-07 00:02:00,69.0,64.0,-100.00,SE,138,2.0,4.0,85,0.00,,,0.00,0.000000,,2013-07-07 04:02:00,
2013-07-07 00:11:00,69.0,64.0,-100.00,SE,138,2.0,4.0,85,0.00,,,0.00,0.000000,,2013-07-07 04:11:00,
2013-07-07 00:41:00,68.0,65.0,-100.00,West,267,2.0,4.0,89,0.00,,,0.00,0.000000,,2013-07-07 04:41:00,
2013-07-07 00:51:00,68.0,65.0,-100.00,West,267,2.0,4.0,89,0.00,,,0.00,0.000000,,2013-07-07 04:51:00,
2013-07-07 01:01:00,68.0,65.0,-100.00,West,267,2.0,4.0,89,0.00,,,0.00,0.000000,,2013-07-07 05:01:00,
2013-07-07 01:11:00,68.0,65.0,-100.00,West,267,2.0,4.0,89,0.00,,,0.00,0.000000,,2013-07-07 05:11:00,
2013-07-07 01:41:00,67.0,65.0,-100.00,NNW,340,2.0,5.0,93,0.00,,,0.00,0.000000,,2013-07-07 05:41:00,
2013-07-07 01:51:00,67.0,65.0,-100.00,NNW,340,2.0,5.0,93,0.00,,,0.00,0.000000,,2013-07-07 05:51:00,
2013-07-07 02:01:00,67.0,65.0,-100.00,NNW,340,2.0,5.0,93,0.00,,,0.00,0.000000,,2013-07-07 06:01:00,
2013-07-07 02:11:00,67.0,65.0,-100.00,NNW,340,2.0,5.0,93,0.00,,,0.00,0.000000,,2013-07-07 06:11:00,
2013-07-07 02:43:00,66.0,64.0,-100.00,NE,54,1.0,4.0,93,0.00,,,0.00,0.000000,,2013-07-07 06:43:00,
2013-07-07 02:52:00,66.0,64.0,-100.00,NE,54,1.0,4.0,93,0.00,,,0.00,0.000000,,2013-07-07 06:52:00,
2013-07-07 03:02:00,66.0,64.0,-100.00,NE,54,1.0,4.0,93,0.00,,,0.00,0.000000,,2013-07-07 07:02:00,
2013-07-07 03:11:00,66.0,64.0,-100.00,NE,54,1.0,4.0,93,0.00,,,0.00,0.000000,,2013-07-07 07:11:00,
2013-07-07 03:44:00,66.0,65.0,-100.00,West,280,1.0,3.0,95,0.00,,,0.00,0.000000,,2013-07-07 07:44:00,
2013-07-07 03:53:00,66.0,65.0,-100.00,West,280,1.0,3.0,95,0.00,,,0.00,0.000000,,2013-07-07 07:53:00,
2013-07-07 04:02:00,66.0,65.0,-100.00,West,280,1.0,3.0,95,0.00,,,0.00,0.000000,,2013-07-07 08:02:00,
2013-07-07 04:12:00,66.0,65.0,-100.00,West,280,1.0,3.0,95,0.00,,,0.00,0.000000,,2013-07-07 08:12:00,
2013-07-07 04:44:00,65.0,64.0,-100.00,ESE,102,0.0,3.0,96,0.00,,,0.00,0.000000,,2013-07-07 08:44:00,
2013-07-07 04:53:00,65.0,64.0,-100.00,ESE,102,0.0,3.0,96,0.00,,,0.00,0.000000,,2013-07-07 08:53:00,
2013-07-07 05:02:00,65.0,64.0,-100.00,ESE,102,0.0,3.0,96,0.00,,,0.00,0.000000,,2013-07-07 09:02:00,
2013-07-07 05:12:00,65.0,64.0,-100.00,ESE,102,0.0,3.0,96,0.00,,,0.00,0.000000,,2013-07-07 09:12:00,
2013-07-07 05:43:00,65.0,64.0,-100.00,SE,144,2.0,3.0,97,0.00,,,0.00,0.000000,,2013-07-07 09:43:00,
2013-07-07 05:53:00,65.0,64.0,-100.00,SE,144,2.0,3.0,97,0.00,,,0.00,0.000000,,2013-07-07 09:53:00,
2013-07-07 06:03:00,65.0,64.0,-100.00,SE,144,2.0,3.0,97,0.00,,,0.00,0.000000,,2013-07-07 10:03:00,
2013-07-07 06:12:00,65.0,64.0,-100.00,SE,144,2.0,3.0,97,0.00,,,0.00,0.000000,,2013-07-07 10:12:00,
2013-07-07 06:43:00,65.0,64.0,-100.00,SE,142,2.0,4.0,97,0.00,,,0.00,0.000000,,2013-07-07 10:43:00,
2013-07-07 06:52:00,65.0,64.0,-100.00,SE,142,2.0,4.0,97,0.00,,,0.00,0.000000,,2013-07-07 10:52:00,
2013-07-07 07:02:00,65.0,64.0,-100.00,SE,142,2.0,4.0,97,0.00,,,0.00,0.000000,,2013-07-07 11:02:00,
2013-07-07 07:12:00,65.0,64.0,-100.00,SE,142,2.0,4.0,97,0.00,,,0.00,0.000000,,2013-07-07 11:12:00,
2013-07-07 07:43:00,66.0,65.0,-100.00,South,171,1.0,2.0,97,0.00,,,0.00,27.000000,,2013-07-07 11:43:00,
2013-07-07 07:53:00,66.0,65.0,-100.00,South,171,1.0,2.0,97,0.00,,,0.00,27.000000,,2013-07-07 11:53:00,
2013-07-07 08:02:00,66.0,65.0,-100.00,South,171,1.0,2.0,97,0.00,,,0.00,27.000000,,2013-07-07 12:02:00,
2013-07-07 08:12:00,66.0,65.0,-100.00,South,171,1.0,2.0,97,0.00,,,0.00,27.000000,,2013-07-07 12:12:00,
2013-07-07 08:43:00,69.0,67.0,-100.00,South,179,2.0,3.0,93,0.00,,,0.00,92.000000,,2013-07-07 12:43:00,
2013-07-07 08:52:00,69.0,67.0,-100.00,South,179,2.0,3.0,93,0.00,,,0.00,92.000000,,2013-07-07 12:52:00,
2013-07-07 09:02:00,69.0,67.0,-100.00,South,179,2.0,3.0,93,0.00,,,0.00,92.000000,,2013-07-07 13:02:00,
2013-07-07 09:12:00,69.0,67.0,-100.00,South,179,2.0,3.0,93,0.00,,,0.00,92.000000,,2013-07-07 13:12:00,
2013-07-07 09:43:00,72.0,68.0,-100.00,SSW,204,2.0,5.0,88,0.00,,,0.00,183.000000,,2013-07-07 13:43:00,
2013-07-07 09:52:00,72.0,68.0,-100.00,SSW,204,2.0,5.0,88,0.00,,,0.00,183.000000,,2013-07-07 13:52:00,
2013-07-07 10:02:00,72.0,68.0,-100.00,SSW,204,2.0,5.0,88,0.00,,,0.00,183.000000,,2013-07-07 14:02:00,
2013-07-07 10:12:00,72.0,68.0,-100.00,SSW,204,2.0,5.0,88,0.00,,,0.00,183.000000,,2013-07-07 14:12:00,
2013-07-07 10:43:00,74.0,69.0,-100.00,WSW,242,2.0,5.0,85,0.00,,,0.00,226.000000,,2013-07-07 14:43:00,
2013-07-07 10:53:00,74.0,69.0,-100.00,WSW,242,2.0,5.0,85,0.00,,,0.00,226.000000,,2013-07-07 14:53:00,
2013-07-07 11:02:00,74.0,69.0,-100.00,WSW,242,2.0,5.0,85,0.00,,,0.00,226.000000,,2013-07-07 15:02:00,
2013-07-07 11:11:00,74.0,69.0,-100.00,WSW,242,2.0,5.0,85,0.00,,,0.00,226.000000,,2013-07-07 15:11:00,
2013-07-07 11:43:00,76.0,69.0,-100.00,WSW,258,4.0,8.0,79,0.00,,,0.00,395.000000,,2013-07-07 15:43:00,
2013-07-07 11:52:00,76.0,69.0,-100.00,WSW,258,4.0,8.0,79,0.00,,,0.00,395.000000,,2013-07-07 15:52:00,
2013-07-07 12:02:00,76.0,69.0,-100.00,WSW,258,4.0,8.0,79,0.00,,,0.00,395.000000,,2013-07-07 16:02:00,
2013-07-07 12:11:00,76.0,69.0,-100.00,WSW,258,4.0,8.0,79,0.00,,,0.00,395.000000,,2013-07-07 16:11:00,
2013-07-07 12:43:00,78.0,69.0,-100.00,West,266,5.0,11.0,74,0.00,,,0.00,454.000000,,2013-07-07 16:43:00,
2013-07-07 12:53:00,78.0,69.0,-100.00,West,266,5.0,11.0,74,0.00,,,0.00,454.000000,,2013-07-07 16:53:00,
2013-07-07 13:02:00,78.0,69.0,-100.00,West,266,5.0,11.0,74,0.00,,,0.00,454.000000,,2013-07-07 17:02:00,
2013-07-07 13:12:00,78.0,69.0,-100.00,West,266,5.0,11.0,74,0.00,,,0.00,454.000000,,2013-07-07 17:12:00,
2013-07-07 13:43:00,70.0,65.0,-100.00,North,349,6.0,17.0,84,0.00,,,0.00,233.000000,,2013-07-07 17:43:00,
2013-07-07 13:53:00,70.0,65.0,-100.00,North,349,6.0,17.0,84,0.00,,,0.00,233.000000,,2013-07-07 17:53:00,
2013-07-07 14:02:00,70.0,65.0,-100.00,North,349,6.0,17.0,84,0.00,,,0.00,233.000000,,2013-07-07 18:02:00,
2013-07-07 14:12:00,70.0,65.0,-100.00,North,349,6.0,17.0,84,0.00,,,0.00,233.000000,,2013-07-07 18:12:00,
2013-07-07 14:43:00,66.0,63.0,-100.00,WSW,257,4.0,11.0,89,0.03,,,0.03,154.000000,,2013-07-07 18:43:00,
2013-07-07 14:53:00,66.0,63.0,-100.00,WSW,257,4.0,11.0,89,0.03,,,0.03,154.000000,,2013-07-07 18:53:00,
2013-07-07 15:01:00,66.0,63.0,-100.00,WSW,257,4.0,11.0,89,0.03,,,0.03,154.000000,,2013-07-07 19:01:00,
2013-07-07 15:11:00,66.0,63.0,-100.00,WSW,257,4.0,11.0,89,0.03,,,0.03,154.000000,,2013-07-07 19:11:00,
2013-07-07 15:43:00,67.0,65.0,-100.00,West,264,2.0,9.0,94,0.05,,,0.08,170.000000,,2013-07-07 19:43:00,
2013-07-07 15:54:00,67.0,65.0,-100.00,West,264,2.0,9.0,94,0.05,,,0.08,170.000000,,2013-07-07 19:54:00,
2013-07-07 16:02:00,67.0,65.0,-100.00,West,264,2.0,9.0,94,0.05,,,0.08,170.000000,,2013-07-07 20:02:00,
2013-07-07 16:11:00,67.0,65.0,-100.00,West,264,2.0,9.0,94,0.05,,,0.08,170.000000,,2013-07-07 20:11:00,
2013-07-07 16:42:00,71.0,65.0,-100.00,SW,216,2.0,5.0,81,0.00,,,0.08,446.000000,,2013-07-07 20:42:00,
2013-07-07 16:53:00,71.0,65.0,-100.00,SW,216,2.0,5.0,81,0.00,,,0.08,446.000000,,2013-07-07 20:53:00,
2013-07-07 17:02:00,71.0,65.0,-100.00,SW,216,2.0,5.0,81,0.00,,,0.08,446.000000,,2013-07-07 21:02:00,
2013-07-07 17:11:00,71.0,65.0,-100.00,SW,216,2.0,5.0,81,0.00,,,0.08,446.000000,,2013-07-07 21:11:00,
2013-07-07 17:44:00,69.0,66.0,-100.00,West,278,2.0,4.0,90,0.00,,,0.08,171.000000,,2013-07-07 21:44:00,
2013-07-07 17:53:00,69.0,66.0,-100.00,West,278,2.0,4.0,90,0.00,,,0.08,171.000000,,2013-07-07 21:53:00,
2013-07-07 18:01:00,69.0,66.0,-100.00,West,278,2.0,4.0,90,0.00,,,0.08,171.000000,,2013-07-07 22:01:00,
2013-07-07 18:11:00,69.0,66.0,-100.00,West,278,2.0,4.0,90,0.00,,,0.08,171.000000,,2013-07-07 22:11:00,
2013-07-07 18:44:00,69.0,66.0,-100.00,SW,235,3.0,6.0,89,0.00,,,0.08,188.000000,,2013-07-07 22:44:00,
2013-07-07 18:54:00,69.0,66.0,-100.00,SW,235,3.0,6.0,89,0.00,,,0.08,188.000000,,2013-07-07 22:54:00,
2013-07-07 19:02:00,69.0,66.0,-100.00,SW,235,3.0,6.0,89,0.00,,,0.08,188.000000,,2013-07-07 23:02:00,
2013-07-07 19:12:00,69.0,66.0,-100.00,SW,235,3.0,6.0,89,0.00,,,0.08,188.000000,,2013-07-07 23:12:00,
2013-07-07 19:43:00,68.0,64.0,-100.00,WNW,283,2.0,4.0,88,0.00,,,0.08,79.000000,,2013-07-07 23:43:00,
2013-07-07 19:53:00,68.0,64.0,-100.00,WNW,283,2.0,4.0,88,0.00,,,0.08,79.000000,,2013-07-07 23:53:00,
2013-07-07 20:02:00,68.0,64.0,-100.00,WNW,283,2.0,4.0,88,0.00,,,0.08,79.000000,,2013-07-08 00:02:00,
2013-07-07 20:12:00,68.0,64.0,-100.00,WNW,283,2.0,4.0,88,0.00,,,0.08,79.000000,,2013-07-08 00:12:00,
2013-07-07 20:43:00,68.0,65.0,-100.00,NW,312,2.0,4.0,90,0.00,,,-99.99,59.000000,,2013-07-08 00:43:00,
2013-07-07 20:53:00,68.0,65.0,-100.00,NW,312,2.0,4.0,90,0.00,,,-99.99,59.000000,,2013-07-08 00:53:00,
2013-07-07 21:01:00,68.0,65.0,-100.00,NW,312,2.0,4.0,90,0.00,,,-99.99,59.000000,,2013-07-08 01:01:00,
2013-07-07 21:11:00,68.0,65.0,-100.00,NW,312,2.0,4.0,90,0.00,,,-99.99,59.000000,,2013-07-08 01:11:00,
2013-07-07 21:43:00,66.0,65.0,-100.00,SW,222,2.0,4.0,95,0.00,,,0.08,16.000000,,2013-07-08 01:43:00,
2013-07-07 21:53:00,66.0,65.0,-100.00,SW,222,2.0,4.0,95,0.00,,,0.08,16.000000,,2013-07-08 01:53:00,
2013-07-07 22:02:00,66.0,65.0,-100.00,SW,222,2.0,4.0,95,0.00,,,0.08,16.000000,,2013-07-08 02:02:00,
2013-07-07 22:11:00,66.0,65.0,-100.00,SW,222,2.0,4.0,95,0.00,,,0.08,16.000000,,2013-07-08 02:11:00,
2013-07-07 22:43:00,65.0,64.0,-100.00,SE,146,0.0,3.0,96,0.00,,,0.08,0.000000,,2013-07-08 02:43:00,
2013-07-07 22:52:00,65.0,64.0,-100.00,SE,146,0.0,3.0,96,0.00,,,0.08,0.000000,,2013-07-08 02:52:00,
2013-07-07 23:02:00,65.0,64.0,-100.00,SE,146,0.0,3.0,96,0.00,,,0.08,0.000000,,2013-07-08 03:02:00,
2013-07-07 23:12:00,65.0,64.0,-100.00,SE,146,0.0,3.0,96,0.00,,,0.08,0.000000,,2013-07-08 03:12:00,
2013-07-07 23:43:00,65.0,64.0,-100.00,WNW,293,2.0,6.0,97,0.00,,,0.08,0.000000,,2013-07-08 03:43:00,
2013-07-07 23:52:00,65.0,64.0,-100.00,WNW,293,2.0,6.0,97,0.00,,,0.08,0.000000,,2013-07-08 03:52:00,